User: anonymous   Login
Location: Borgo
(42.3939°N, 9.2791°E)
Time: 10:33:28
(UTC+00:00)
Language:

Cosmos 44 - Orbit

View from above orbital plane
View from above orbital plane
View from above satellite
View from above satellite

Ground track
Ground track

The orbit data is extracted from the following two-line orbital elements,

1   876U 64053A   21102.84944207 -.00000038  00000-0  17008-4 0  9995
2   876  65.0590 143.9839 0155733 282.4569  75.9145 14.63790908 12219
Epoch (UTC): 12 April 2021 20:23:11
Eccentricity: 0.0155733
inclination: 65.0590°
perigee height: 571 km
apogee height: 791 km
right ascension of ascending node: 143.9839°
argument of perigee: 282.4569°
revolutions per day: 14.63790908
mean anomaly at epoch: 75.9145°
orbit number at epoch: 1221

The dashed part of the orbit path shows where the satellite is in the earth's shadow,  

DLR